Regional Weather Roundup
Issued by NWS

Home | Current Version | Previous Version | Graphics & Text | Print | Product List | Glossary On
Versions: 1 2 3 4 5 6 7 8 9 10 11 12 13 14 15 16 17 18 19 20 21 22 23 24 25 26 27 28 29 30 31 32 33 34 35 36 37 38 39 40 41 42 43 44 45 46 47 48 49 50
000
ASUS45 KTFX 250310
RWRMT
MONTANA REGIONAL WEATHER ROUNDUP
NATIONAL WEATHER SERVICE GREAT FALLS MT
900 PM MDT SAT SEP 24 2016

NOTE: "FAIR" INDICATES FEW OR NO CLOUDS BELOW 12000 FEET WITH NO
SIGNIFICANT WEATHER AND/OR OBSTRUCTIONS TO VISIBILITY.

MTZ001>007-043-250400-
WEST OF THE DIVIDE

CITY           SKY/WX    TMP DP  RH WIND       PRES   REMARKS
KALISPELL      CLEAR     51  34  52 SW7       30.29R
MISSOULA       MOCLDY    52  37  56 N6        30.37R
BUTTE          CLEAR     45  30  55 NW7       30.36R
MULLAN PASS    PTCLDY    38  34  85 NW5       30.40R
ANACONDA         N/A     46  30  53 W9        30.37R
DEER LODGE       N/A     46  34  61 W5        30.38R
EUREKA           N/A     54  36  50 E6        30.28R
HAMILTON         N/A     46  36  66 SE5       30.37R
LIBBY            N/A     48  37  66 SE5       30.31R
PLAINS           N/A     53  35  50 CALM      30.34R
RONAN            N/A     52  36  54 CALM      30.36R
THOMPSON FALLS   N/A     51  37  58 CALM      30.38R
$$

MTZ008-052>055-250400-
SOUTHWEST MONTANA

CITY           SKY/WX    TMP DP  RH WIND       PRES   REMARKS
BOZEMAN        CLOUDY    46  35  65 S9        30.33R
DILLON         CLEAR     45  34  65 E3        30.34R
W YELLOWSTONE    N/A     37  32  81 CALM      30.38R
ENNIS          CLEAR     43  30  61 NE7       30.39R
THREE FORKS      N/A     48  32  54 CALM      30.28R
TWIN BRIDGES     N/A     49  29  46 N6        30.29R
$$

MTZ009-010-012-014-046-048-049-054-250400-
EAST SLOPES AND CENTRAL MONTANA

CITY           SKY/WX    TMP DP  RH WIND       PRES   REMARKS
CUT BANK       CLEAR     47  41  80 CALM      30.24R
GREAT FALLS    CLOUDY    49  40  71 N7        30.27R
MALMSTROM AFB  CLOUDY    49  42  76 N2        30.27R
HELENA         CLEAR     54  33  45 W9        30.29R
CHOTEAU          N/A     48  34  57 SW5       30.29R
CONRAD           N/A     40  40 100 NW2       30.25R
$$

MTZ011-013-016-021-045-047-050-051-250400-
NORTH CENTRAL MONTANA

CITY           SKY/WX    TMP DP  RH WIND       PRES   REMARKS
HAVRE          CLEAR     47  42  83 W9        30.20R
LEWISTOWN      CLOUDY    48  42  80 W8        30.25R
N BAR RANCH    CLOUDY    50  39  66 W9G16     30.26R
CHINOOK          N/A     48  39  71 W6        30.17R
$$

MTZ017>020-022>027-061-062-250400-
NORTHEAST MONTANA

CITY           SKY/WX    TMP DP  RH WIND       PRES   REMARKS
GLASGOW        MOCLDY    53  46  77 NW20      30.07R
JORDAN           N/A     52  47  83 W12       30.11R
WOLF POINT     CLOUDY    54  49  83 W15       30.03R
PLENTYWOOD       N/A     50  48  93 NW18G24   29.93R
POPLAR           N/A     52  48  87 NW13      30.00R
SCOBEY           N/A     51  45  80 NW16      30.00R
$$

MTZ028>42-056>058-250400-
SOUTHCENTRAL AND SOUTHEAST MONTANA

CITY           SKY/WX    TMP DP  RH WIND       PRES   REMARKS
BAKER          RAIN      49  32  52 NW24G43   29.96R
BILLINGS       CLOUDY    55  40  56 NW14      30.23R
LIVINGSTON     CLOUDY    52  34  50 SW9       30.29R
MILES CITY     CLOUDY    52  45  77 NW16      30.10R
BIG TIMBER     CLOUDY    54  36  50 W18       30.28S
EKALAKA          N/A     47  45  93 W22       29.98R
FORSYTH          N/A     52  52 100 W9        30.15R
LAUREL           N/A     54  39  56 CALM      30.22R
ROUNDUP          N/A     55  40  57 NW13      30.12R
$$

REGIONAL REPORTS...DAKOTAS

CITY           SKY/WX    TMP DP  RH WIND       PRES   REMARKS
WILLISTON      LGT RAIN  52  48  86 N28G37    29.86R
MINOT          CLOUDY    59  58  96 NW9       29.74R
DICKINSON      CLOUDY    53  52  96 NW21G30   29.76R
CROSBY         CLOUDY    50  50 100 NW20G30   29.87R
WATFORD CITY   LGT RAIN  50  50 100 NW22G28   29.85R
BISMARCK       CLEAR     60  49  66 SW9       29.76R
GRAND FORKS    LGT RAIN  69  66  90 SE14      29.75F
FARGO          LGT RAIN  70  67  90 S17G25    29.78F
BUFFALO SD       N/A     51  48  89 NW43G59   29.83R
RAPID CITY     LGT RAIN  50  41  71 W13       30.02R
$$

REGIONAL REPORTS...WYOMING/IDAHO/WASHINGTON

CITY           SKY/WX    TMP DP  RH WIND       PRES   REMARKS
GILLETTE       CLOUDY    45  44  97 NW17      30.16R
SHERIDAN       CLOUDY    50  43  77 NW9G21    30.19R
BUFFALO WY     CLOUDY    47  41  80 W8        30.20R
CODY           CLOUDY    48  43  81 SW8       30.30R
YELLOWSTONE LA   N/A     34  32  92 CALM      30.42R
IDAHO FALLS    CLEAR     52  39  61 S13       30.32R
SALMON         CLEAR     52  30  43 CALM      30.35R
BOISE          CLEAR     60  32  34 NW3       30.31R
SPOKANE        PTCLDY    58  35  42 SW8       30.33R
$$

REGIONAL REPORTS...ALBERTA

CITY           SKY/WX    TMP DP  RH WIND       PRES   REMARKS
EDMONTON       CLEAR     41  30  65 W2        30.12R
CALGARY        PTCLDY    50  30  46 NW3       30.19R
LETHBRIDGE     PTCLDY    45  39  81 S16       30.19R
MEDICINE HAT   CLEAR     43  37  81 W6        30.17R
WATERTON GATE    N/A     46  30  53 SW6         N/A
CARDSTON         N/A     46  34  61 SW8         N/A
MILK RIVER       N/A     41  37  87 W2          N/A
ONEFOUR          N/A     45  37  76 NW9         N/A
$$

REGIONAL REPORTS...SASKATCHEWAN

CITY           SKY/WX    TMP DP  RH WIND       PRES   REMARKS
SWIFT CURRENT  CLEAR     45  39  81 W9        30.07R
REGINA         LGT RAIN  50  48  93 NW18G24   29.95R
SASKATOON      PTCLDY    50  39  66 NW13      30.00R
CYPRESS HILLS    N/A     43  30  61 NW6         N/A
VAL MARIE        N/A     46  39  76 NW7         N/A
ROCKGLEN         N/A     48  46  93 NW17G24     N/A
ASSINIBOIA       N/A     45  32  61 W7          N/A
$$



USA.gov is the U.S. government's official web portal to all federal, state and local government web resources and services.